[[{"header":{"parameterUnit":"m.s-1","parameterCategory":1,"la1":30.2991,"la2":30.254,"lo1":-89.0895,"lo2":-89.0444,"dy":0.0017,"dx":0.0017,"nx":28,"ny":28,"refTime":"2024-05-08T09:00:00:Z","depth":0,"parameterNumber":2,"parameterNumberName":"U-component_of_WINDS"},"data":[0,0,0,0,0,0,0,0,0,0,0,0,0,0,0,0,0,0,0,0,0,0,0,0,0,0,0,0,0,0,0,0,0,0,0,0,0,0,0,0,0,0,0,0,0,0,0,0,0,0,0,0,0,0,0,0,0,0,-3.0671,-3.0671,0,-3.0688,-3.0688,-3.0688,-3.0669,-3.0668,-3.0667,-3.0667,-3.0683,-3.0684,-3.0685,0,0,0,0,0,0,0,0,0,0,0,0,0,-3.0622,-3.0623,-3.0671,-3.0671,-3.0671,-3.0688,-3.0688,-3.0688,-3.0669,-3.0668,-3.0667,-3.0666,-3.0683,-3.0684,-3.0685,0,0,0,0,0,0,0,0,0,0,0,0,0,-3.0641,-3.0623,-3.0671,-3.0664,-3.0663,-3.0688,-3.0688,-3.0688,-3.0669,-3.0668,-3.0667,-3.0666,-3.0682,-3.0684,-3.0686,-3.0718,0,0,-3.0691,-3.0691,0,0,0,0,0,0,0,0,-3.064,-3.0643,-3.0665,-3.0664,-3.0664,-3.0675,-3.0677,-3.0698,-3.0669,-3.0667,-3.0667,-3.0665,-3.0681,-3.0683,-3.0689,-3.0718,-3.0719,-3.0691,-3.0692,-3.0693,-3.0693,0,0,0,0,0,0,0,-3.0639,-3.0642,-3.0677,-3.0665,-3.0664,-3.066,-3.0661,-3.0681,-3.068,-3.0667,-3.0666,-3.0668,-3.0681,-3.0687,-3.0689,-3.0719,-3.0691,-3.0692,-3.0693,-3.0694,-3.0776,-3.0777,0,0,0,0,0,0,-3.0638,-3.0641,-3.0677,-3.0678,-3.0649,-3.0661,-3.0663,-3.0672,-3.068,-3.068,-3.0669,-3.0667,-3.0685,-3.0687,-3.0689,-3.0726,-3.0693,-3.0694,-3.0695,-3.0775,-3.0776,-3.0777,0,0,0,0,0,0,-3.0638,-3.0642,-3.0676,-3.0659,-3.0663,-3.0663,-3.0674,-3.0673,-3.0679,-3.0681,-3.0681,-3.0675,-3.0684,-3.0687,-3.0711,-3.0726,-3.0695,-3.0696,-3.0773,-3.0775,-3.0777,-3.0801,0,0,0,0,0,0,-3.0636,-3.0642,-3.0654,-3.066,-3.0664,-3.0697,-3.0675,-3.0674,-3.0682,-3.068,-3.0687,-3.0687,-3.0683,-3.0708,-3.0712,-3.0728,-3.0698,-3.0772,-3.0774,-3.0776,-3.0799,-3.0803,-3.0807,0,0,0,0,0,-3.0635,-3.066,-3.0654,-3.0659,-3.0679,-3.0698,-3.0701,-3.0696,-3.0684,-3.0696,-3.0697,-3.0687,-3.0725,-3.0711,-3.0715,-3.0732,-3.0771,-3.0773,-3.0776,-3.0797,-3.0802,-3.0807,0,0,0,0,0,0,-3.0655,-3.066,-3.0654,-3.0682,-3.069,-3.0695,-3.071,-3.0702,-3.0714,-3.0711,-3.0705,-3.0707,-3.0732,-3.0735,-3.0719,-3.0763,-3.0746,-3.0749,-3.076,-3.0765,-3.0769,-3.0767,-3.0699,0,0,0,0,0,-3.0663,-3.0678,-3.0682,-3.0706,-3.071,-3.071,-3.0718,-3.0714,-3.0721,-3.0724,-3.0727,-3.0735,-3.0748,-3.0757,-3.077,-3.08,-3.08,-3.0814,-3.0818,-3.0821,-3.0824,-3.0839,-3.0845,-3.0786,-3.0786,-3.0786,0,0,-3.0679,-3.0684,-3.0694,-3.071,-3.0716,-3.0731,-3.0712,-3.073,-3.0741,-3.0727,-3.0749,-3.0752,-3.076,-3.0787,-3.0799,-3.079,-3.0841,-3.0825,-3.0828,-3.0828,-3.0842,-3.0848,-3.0853,-3.0788,-3.0788,-3.0787,0,0,-3.0716,-3.0722,-3.0742,-3.0748,-3.0757,-3.0756,-3.0762,-3.0768,-3.0769,-3.0792,-3.0781,-3.0795,-3.0819,-3.0825,-3.0831,-3.0871,-3.0862,-3.0876,-3.0897,-3.0912,-3.0917,-3.0921,-3.0934,-3.0939,-3.0879,-3.0879,-3.0879,0,-3.0735,-3.0757,-3.0753,-3.0771,-3.0779,-3.0768,-3.0788,-3.0794,-3.0807,-3.0812,-3.0803,-3.0832,-3.0837,-3.0864,-3.0874,-3.088,-3.0885,-3.0874,-3.0917,-3.0921,-3.0924,-3.0937,-3.0942,-3.088,-3.088,-3.088,-3.088,0,-3.0779,-3.0796,-3.0811,-3.0823,-3.0833,-3.0852,-3.0851,-3.0861,-3.0857,-3.0857,-3.088,-3.0886,-3.0899,-3.0906,-3.0902,-3.0933,-3.0928,-3.0918,-3.09,-3.0932,-3.0943,-3.0948,-3.0883,-3.0882,-3.0882,-3.0881,0,0,-3.0828,-3.0838,-3.0844,-3.0849,-3.0859,-3.0871,-3.089,-3.0903,-3.0912,-3.0921,-3.0936,-3.0957,-3.0948,-3.0955,-3.0952,-3.0966,-3.0996,-3.0954,-3.0954,-3.096,-3.1029,-3.1035,-3.1041,-3.0991,-3.0992,-3.0993,-3.1028,0,-3.0864,-3.0896,-3.0893,-3.0924,-3.0938,-3.0929,-3.0945,-3.0953,-3.0954,-3.0967,-3.0968,-3.0983,-3.097,-3.0975,-3.0988,-3.0989,-3.1009,-3.0987,-3.1004,-3.1004,-3.1,-3.1047,-3.1054,-3.1087,-3.1033,-3.1034,-3.1034,0,-3.0909,-3.092,-3.0952,-3.0959,-3.0965,-3.098,-3.0992,-3.1004,-3.1013,-3.1013,-3.1022,-3.1016,-3.1035,-3.1019,-3.1044,-3.1029,-3.1036,-3.1038,-3.1039,-3.1039,-3.102,-3.1047,-3.1098,-3.1102,-3.1042,-3.1041,-3.104,0,-3.0939,-3.0962,-3.0984,-3.0989,-3.0999,-3.1009,-3.1013,-3.1021,-3.1029,-3.104,-3.1045,-3.1058,-3.1065,-3.1075,-3.1074,-3.1062,-3.1099,-3.1083,-3.1099,-3.1099,-3.1106,-3.1105,-3.1157,-3.1114,-3.1114,-3.1113,-3.1113,0,-3.0978,-3.0998,-3.0998,-3.1011,-3.1033,-3.103,-3.1052,-3.1055,-3.1062,-3.1075,-3.1069,-3.1082,-3.108,-3.1093,-3.1092,-3.1112,-3.1116,-3.1116,-3.1115,-3.1116,-3.1115,-3.1118,-3.1115,-3.1115,-3.1115,-3.1114,-3.1114,0,-3.1015,-3.1016,-3.1039,-3.1046,-3.1048,-3.1064,-3.107,-3.1082,-3.1084,-3.1101,-3.1105,-3.1107,-3.1122,-3.1122,-3.114,-3.1139,-3.1164,-3.1161,-3.1161,-3.116,-3.1175,-3.1173,-3.123,-3.1236,-3.119,-3.1191,-3.1191,0,-3.1039,-3.1053,-3.1062,-3.1071,-3.1076,-3.109,-3.1099,-3.1097,-3.1106,-3.1118,-3.1129,-3.1143,-3.1154,-3.1179,-3.1182,-3.1195,-3.1192,-3.121,-3.1193,-3.1193,-3.119,-3.1188,-3.1189,-3.1213,-3.1214,-3.1214,-3.1214,0,-3.1081,-3.1081,-3.1093,-3.1106,-3.1116,-3.1126,-3.1135,-3.1143,-3.1142,-3.1153,-3.1168,-3.1177,-3.1195,-3.1209,-3.1222,-3.1226,-3.122,-3.122,-3.1224,-3.1224,-3.1222,-3.1222,-3.1168,-3.1218,-3.1218,-3.1218,-3.1217,-3.1217,-3.111,-3.1123,-3.1131,-3.1145,-3.1152,-3.1161,-3.1173,-3.1176,-3.1189,-3.1203,-3.1202,-3.1219,-3.1227,-3.1244,-3.1249,-3.1262,-3.1256,-3.1262,-3.1264,-3.1265,-3.1266,-3.1222,-3.1265,-3.1265,-3.1265,-3.1265,-3.1265,0,-3.1151,-3.1156,-3.1169,-3.1182,-3.1193,-3.1188,-3.1198,-3.1207,-3.1222,-3.123,-3.1242,-3.1259,-3.1273,-3.1278,-3.1291,-3.1301,-3.1298,-3.1304,-3.1303,-3.1304,-3.1272,-3.1266,-3.1306,-3.1306,-3.1306,-3.1306,-3.1306,-3.1306,-3.1173,-3.1193,-3.1194,-3.1218,-3.1223,-3.124,-3.1246,-3.1254,-3.1261,-3.128,-3.1292,-3.1295,-3.1302,-3.1316,-3.1329,-3.133,-3.1334,-3.1341,-3.1341,-3.131,-3.1306,-3.1302,-3.1296,-3.1342,-3.1342,-3.1371,-3.1372,-3.1372]},{"header":{"parameterUnit":"m.s-1","parameterCategory":1,"la1":30.2991,"la2":30.254,"lo1":-89.0895,"lo2":-89.0444,"dy":0.0017,"dx":0.0017,"nx":28,"ny":28,"refTime":"2024-05-08T09:00:00:Z","depth":0,"parameterNumber":3,"parameterNumberName":"V-component_of_WINDS"},"data":[0,0,0,0,0,0,0,0,0,0,0,0,0,0,0,0,0,0,0,0,0,0,0,0,0,0,0,0,0,0,0,0,0,0,0,0,0,0,0,0,0,0,0,0,0,0,0,0,0,0,0,0,0,0,0,0,0,0,6.4473,6.4474,0,6.4571,6.4572,6.4573,6.4594,6.4594,6.4593,6.4592,6.4688,6.4691,6.4694,0,0,0,0,0,0,0,0,0,0,0,0,0,6.4302,6.4305,6.4473,6.4474,6.4475,6.457,6.4572,6.4573,6.4594,6.4594,6.4593,6.4592,6.4687,6.4691,6.4695,0,0,0,0,0,0,0,0,0,0,0,0,0,6.4385,6.4306,6.4472,6.4497,6.4501,6.457,6.4572,6.4573,6.4595,6.4594,6.4592,6.4591,6.4686,6.469,6.4695,6.4746,0,0,6.471,6.4712,0,0,0,0,0,0,0,0,6.438,6.4391,6.4492,6.4496,6.4499,6.4569,6.4547,6.4631,6.4595,6.4559,6.4592,6.4591,6.4649,6.4657,6.4677,6.475,6.4754,6.471,6.4713,6.4715,6.4717,0,0,0,0,0,0,0,6.4375,6.4387,6.4511,6.4494,6.4498,6.4503,6.4513,6.4563,6.4608,6.4562,6.4564,6.4575,6.4651,6.4673,6.468,6.4756,6.471,6.4714,6.4717,6.4719,6.4876,6.4877,0,0,0,0,0,0,6.4365,6.4382,6.4508,6.4514,6.4436,6.4507,6.4519,6.4548,6.4608,6.4616,6.4576,6.4576,6.4665,6.4674,6.4683,6.4747,6.4715,6.472,6.4722,6.4875,6.4876,6.4878,0,0,0,0,0,0,6.4361,6.4376,6.4504,6.4449,6.4466,6.4511,6.4543,6.455,6.4572,6.4619,6.4627,6.459,6.4665,6.4676,6.4731,6.4751,6.4722,6.4726,6.4873,6.4875,6.4877,6.4875,0,0,0,0,0,0,6.4356,6.4374,6.4395,6.4449,6.4468,6.4551,6.4545,6.4553,6.4581,6.4582,6.4634,6.4642,6.4665,6.4723,6.4735,6.4757,6.473,6.4872,6.4874,6.4877,6.4873,6.4877,6.4879,0,0,0,0,0,6.435,6.4389,6.4395,6.441,6.4495,6.4552,6.4563,6.459,6.4582,6.4603,6.4633,6.464,6.4747,6.4729,6.4742,6.4766,6.4871,6.4874,6.4876,6.4872,6.4876,6.4879,0,0,0,0,0,0,6.4333,6.4396,6.4404,6.4462,6.4502,6.4555,6.4582,6.4593,6.4634,6.4632,6.4663,6.4674,6.4727,6.4752,6.473,6.4818,6.4808,6.4814,6.48,6.4804,6.4807,6.48,6.4734,0,0,0,0,0,6.4337,6.4379,6.4431,6.4477,6.4497,6.4536,6.4562,6.4579,6.4621,6.4637,6.4671,6.471,6.4753,6.478,6.4821,6.4877,6.4889,6.49,6.4903,6.4905,6.491,6.4942,6.4948,6.4887,6.4887,6.4887,0,0,6.4343,6.4383,6.4407,6.4475,6.4508,6.455,6.455,6.4594,6.4626,6.4643,6.4697,6.4724,6.4769,6.4825,6.4851,6.4847,6.493,6.4909,6.491,6.4914,6.4946,6.4952,6.4957,6.4889,6.4889,6.4889,0,0,6.4377,6.4412,6.4454,6.4488,6.4538,6.4564,6.4575,6.4627,6.4646,6.4701,6.4716,6.4753,6.4826,6.4858,6.4884,6.4933,6.4941,6.4945,6.4961,6.4992,6.4997,6.5001,6.5019,6.5025,6.495,6.495,6.495,0,6.4379,6.4445,6.4474,6.452,6.4549,6.4569,6.4613,6.4643,6.4703,6.4723,6.4718,6.4811,6.4843,6.4907,6.4919,6.4939,6.4952,6.4939,6.4994,6.4999,6.5003,6.5021,6.5027,6.495,6.495,6.495,6.495,0,6.4445,6.449,6.4518,6.4579,6.4611,6.4655,6.4691,6.472,6.4736,6.4762,6.4818,6.4858,6.4908,6.4925,6.4939,6.4992,6.4988,6.4988,6.4978,6.5009,6.5026,6.5033,6.4951,6.495,6.495,6.495,0,0,6.4469,6.4548,6.4558,6.4586,6.4644,6.4679,6.4724,6.4776,6.48,6.4842,6.488,6.4942,6.4944,6.4973,6.4991,6.5019,6.5056,6.5016,6.5017,6.5022,6.5117,6.5117,6.5124,6.5062,6.5064,6.5065,6.5113,0,6.4511,6.4594,6.4623,6.469,6.4733,6.4754,6.4793,6.4832,6.4859,6.4898,6.4926,6.497,6.4968,6.4987,6.5015,6.5045,6.5075,6.5042,6.5098,6.5099,6.5086,6.5133,6.5132,6.5176,6.512,6.5121,6.5122,0,6.457,6.4615,6.4688,6.4742,6.4761,6.4796,6.4846,6.4884,6.4929,6.4946,6.498,6.4997,6.5045,6.5033,6.5098,6.5075,6.51,6.5118,6.5121,6.5127,6.5112,6.514,6.5191,6.5197,6.5133,6.5132,6.5131,0,6.4582,6.466,6.4715,6.4738,6.4802,6.4827,6.4854,6.4899,6.4929,6.4972,6.4992,6.5039,6.5065,6.5102,6.5131,6.512,6.5195,6.5185,6.521,6.5209,6.5224,6.5223,6.528,6.524,6.524,6.524,6.5239,0,6.4626,6.467,6.4721,6.4754,6.4804,6.4837,6.4885,6.4913,6.4953,6.4992,6.5012,6.5047,6.5084,6.5124,6.5147,6.5199,6.521,6.5225,6.5231,6.5224,6.5222,6.524,6.5237,6.5241,6.5241,6.5241,6.524,0,6.4647,6.4684,6.4744,6.4801,6.4816,6.4851,6.4899,6.4932,6.496,6.5008,6.5022,6.5065,6.5114,6.5147,6.5208,6.5224,6.528,6.5285,6.5265,6.5268,6.5291,6.5289,6.5362,6.5373,6.5325,6.5326,6.5326,0,6.4673,6.4707,6.4769,6.4797,6.4826,6.487,6.4902,6.4935,6.4967,6.5022,6.5048,6.5099,6.5141,6.5218,6.5254,6.5302,6.5308,6.533,6.5315,6.5307,6.5309,6.5306,6.531,6.5332,6.5333,6.5333,6.5333,0,6.4715,6.4731,6.4776,6.4828,6.4865,6.4906,6.4948,6.497,6.5011,6.5045,6.5096,6.5129,6.5193,6.5243,6.5295,6.5322,6.5335,6.5338,6.5347,6.5339,6.5327,6.5334,6.5272,6.5336,6.5336,6.5336,6.5335,6.5335,6.4739,6.4771,6.482,6.487,6.4905,6.4944,6.4979,6.5012,6.5055,6.5112,6.5129,6.5182,6.5227,6.5298,6.5327,6.5369,6.5367,6.5378,6.5382,6.5384,6.5384,6.532,6.5378,6.5378,6.5378,6.5378,6.5378,0,6.4782,6.4816,6.4861,6.492,6.4959,6.4969,6.5016,6.5048,6.5095,6.5137,6.5179,6.5238,6.5287,6.5328,6.5379,6.5404,6.5411,6.5416,6.5415,6.5421,6.5383,6.5371,6.541,6.541,6.541,6.541,6.541,6.541,6.4809,6.4865,6.4888,6.4961,6.4993,6.5047,6.5073,6.5109,6.5143,6.5209,6.5251,6.5278,6.532,6.5374,6.5419,6.543,6.5448,6.5452,6.5463,6.5427,6.5423,6.542,6.5409,6.5455,6.5455,6.5498,6.5498,6.5499]}]]